Date,TemperatureHighF,TemperatureAvgF,TemperatureLowF,DewpointHighF,DewpointAvgF,DewpointLowF,HumidityHigh,HumidityAvg,HumidityLow,PressureMaxIn,PressureMinIn,WindSpeedMaxMPH,WindSpeedAvgMPH,GustSpeedMaxMPH,PrecipitationSumIn
2013-1-1,34,20,0,100,21,-4,88,73,57,29.99,29.71,20,6,0,0.00
2013-1-2,164,8,0,100,24,-6,88,80,72,30.26,29.87,16,5,0,0.00
2013-1-3,164,6,0,100,41,-6,85,75,59,30.24,29.94,8,1,0,0.00
2013-1-4,35,29,17,29,23,12,88,79,71,29.94,29.79,15,6,0,0.00
2013-1-5,36,27,11,28,19,8,92,70,59,30.26,29.82,17,5,0,0.00
2013-1-6,37,30,15,32,26,12,89,83,78,30.18,29.91,12,3,0,0.00
2013-1-7,36,23,17,31,17,14,87,78,64,30.39,29.95,13,4,0,0.01
2013-1-8,39,28,15,26,22,13,93,77,58,30.38,30.25,18,5,0,0.00
2013-1-9,43,30,17,35,24,15,94,79,61,30.38,29.95,23,5,0,0.03
2013-1-10,42,36,25,35,23,-100,85,65,54,30.58,30.05,17,-25,0,0.01
2013-1-11,38,22,19,36,-5,-100,95,67,63,30.58,30.12,12,-240,0,0.05
2013-1-12,45,25,36,43,-14,-100,96,59,91,30.16,30.09,11,-377,0,0.00
2013-1-13,47,42,39,45,37,-100,97,91,91,30.13,29.93,14,-27,0,0.00
2013-1-14,50,17,44,46,-47,-100,96,32,52,30.29,29.84,21,-628,0,0.00
2013-1-15,37,8,27,26,-73,-100,84,15,61,30.33,30.22,3,-770,0,0.00
2013-1-16,33,17,30,31,-32,-100,94,48,89,30.23,29.81,15,-472,0,0.01
2013-1-17,35,25,11,31,18,2,92,74,53,30.20,29.81,18,6,0,0.00
2013-1-18,16,4,2,2,-53,-100,79,33,51,30.40,30.16,6,-530,0,0.00
2013-1-19,42,15,39,27,-53,-100,60,21,54,30.23,29.75,12,-624,0,0.03
2013-1-20,43,21,29,35,-32,-100,90,34,51,29.98,29.44,23,-451,0,0.05
2013-1-21,-200,0,200,-100,-100,-100,0,0,100,30.04,29.79,0,-999,0,0.00
2013-1-22,6,0,5,-2,-98,-100,72,2,66,30.11,29.77,2,-944,0,0.00
2013-1-23,5,0,5,-8,-97,-100,54,2,52,30.22,30.04,4,-956,0,0.00
2013-1-24,10,0,10,-6,-97,-100,48,1,46,30.32,30.13,9,-968,0,0.00
2013-1-25,-200,0,200,-100,-100,-100,0,0,100,30.40,30.07,0,-999,0,0.00
2013-1-26,-200,0,200,-100,-100,-100,0,0,100,30.27,30.05,0,-999,0,0.00
2013-1-27,-200,0,200,-100,-100,-100,0,0,100,30.49,30.27,0,-999,0,0.00
2013-1-28,25,1,25,24,-96,-100,93,3,93,30.45,29.96,3,-968,0,0.00
2013-1-29,38,26,24,35,9,-100,94,78,85,30.16,29.98,12,-144,0,0.16
2013-1-30,57,37,37,55,18,-100,96,77,88,30.00,29.28,22,-174,0,0.22
2013-1-31,57,32,25,55,-1,-100,96,55,47,29.58,28.83,24,-266,0,0.51
2013-2-1,25,22,18,16,11,7,84,64,55,30.11,29.58,17,6,0,0.00
2013-2-2,23,18,11,18,12,6,90,77,60,30.21,30.05,20,4,0,0.00
2013-2-3,28,19,8,17,13,5,92,78,55,30.05,29.77,6,1,0,0.00
2013-2-4,28,18,13,16,-1,-100,90,59,33,29.93,29.75,25,-82,0,0.00
2013-2-5,26,12,6,12,-17,-100,79,52,42,30.06,29.91,6,-207,0,0.00
2013-2-6,28,10,14,22,-45,-100,87,34,41,30.38,29.89,11,-493,0,0.00
2013-2-7,18,13,8,4,1,-3,65,58,47,30.61,30.39,13,5,0,0.00
2013-2-8,28,20,14,24,16,3,91,85,63,30.44,29.90,11,4,0,0.00
2013-2-9,22,13,4,20,6,-3,91,73,52,30.38,29.90,29,14,0,0.00
2013-2-10,29,6,1,100,-17,-100,85,42,38,30.53,30.23,6,-388,0,0.04
2013-2-11,40,17,21,38,-40,-100,95,40,73,30.25,29.63,10,-546,0,0.04
2013-2-12,40,8,37,32,-76,-100,77,15,68,29.87,29.63,20,-779,0,0.00
2013-2-13,37,0,37,25,-99,-100,62,1,62,29.85,29.73,3,-988,0,0.00
2013-2-14,38,3,31,25,-91,-100,76,5,58,29.94,29.73,9,-916,0,0.00
2013-2-15,43,3,33,25,-92,-100,70,4,64,29.97,29.84,7,-915,0,0.00
2013-2-16,33,1,32,25,-96,-100,73,2,72,30.01,29.89,4,-968,0,0.00
2013-2-17,20,8,12,9,-45,-100,78,33,50,29.90,29.66,20,-463,0,0.00
2013-2-18,20,8,7,9,-33,-100,79,44,52,30.18,29.90,7,-346,0,0.00
2013-2-19,46,25,14,35,-5,-100,95,51,37,30.17,29.60,16,-208,0,0.24
2013-2-20,34,14,26,33,-43,-100,94,30,52,29.78,29.59,16,-495,0,0.00
2013-2-21,26,13,14,19,-27,-100,87,50,65,30.39,29.79,12,-337,0,0.00
2013-2-22,36,24,18,26,2,-100,92,67,64,30.44,30.23,7,-166,0,0.00
2013-2-23,36,34,30,33,23,-100,91,75,65,30.23,29.89,15,-46,0,0.02
2013-2-24,36,26,31,35,-2,-100,95,68,87,29.95,29.77,11,-258,0,0.06
2013-2-25,37,13,34,33,-51,-100,93,32,82,30.25,29.96,5,-630,0,0.00
2013-2-26,42,15,37,35,-50,-100,81,28,66,30.33,30.09,14,-605,0,0.00
2013-2-27,42,27,34,34,-5,-100,92,56,67,30.10,29.63,19,-271,0,0.07
2013-2-28,46,38,32,37,32,-100,95,83,66,29.63,29.56,10,-8,0,0.01
2013-3-1,37,32,32,33,21,-100,95,79,78,29.77,29.60,17,-66,0,0.00
2013-3-2,33,26,27,30,5,-100,92,72,77,29.78,29.73,15,-171,0,0.01
2013-3-3,-200,0,200,-100,-100,-100,0,0,100,29.76,29.66,0,-999,0,0.00
2013-3-4,-200,0,200,-100,-100,-100,0,0,100,29.89,29.69,0,-999,0,0.00
2013-3-5,-200,0,200,-100,-100,-100,0,0,100,30.09,29.88,0,-999,0,0.00
2013-3-6,42,22,36,30,-30,-100,68,34,57,30.18,30.07,14,-445,0,0.00
2013-3-7,38,34,30,28,26,23,90,72,61,30.19,30.14,17,8,0,0.00
2013-3-8,39,26,30,31,-1,-100,89,61,69,30.32,30.14,22,-212,0,0.01
2013-3-9,48,32,26,31,9,-100,87,57,45,30.36,30.29,14,-132,0,0.00
2013-3-10,56,34,24,31,-8,-100,90,35,32,30.34,30.14,19,-270,0,0.00
2013-3-11,50,46,40,37,33,28,74,61,47,30.20,29.98,19,8,0,0.00
2013-3-12,52,42,39,50,27,-100,95,76,59,29.99,29.65,16,-117,0,1.61
2013-3-13,45,38,32,37,32,24,96,81,46,29.84,29.75,9,2,0,0.01
2013-3-14,34,11,20,27,-49,-100,85,32,68,29.93,29.75,16,-556,0,0.00
2013-3-15,35,24,14,30,13,-100,92,71,48,29.94,29.59,18,-38,0,0.01
2013-3-16,31,18,21,19,-17,-100,83,50,57,29.93,29.74,15,-274,0,0.00
2013-3-17,29,21,15,17,7,-100,90,65,48,30.35,29.92,15,-40,0,0.00
2013-3-18,36,26,10,22,11,6,88,57,31,30.46,30.12,16,2,0,0.00
2013-3-19,35,21,29,31,-14,-100,94,60,73,30.11,29.72,15,-327,0,0.11
2013-3-20,38,16,26,28,-41,-100,93,33,53,29.76,29.66,21,-502,0,0.08
2013-3-21,33,2,22,23,-96,-100,85,2,71,29.77,29.61,7,-934,0,0.00
2013-3-22,34,8,16,20,-62,-100,84,24,56,29.77,29.63,6,-673,0,0.00
2013-3-23,39,6,35,25,-81,-100,67,9,49,29.83,29.68,19,-829,0,0.00
2013-3-24,41,7,35,30,-77,-100,80,12,57,29.87,29.79,13,-798,0,0.00
2013-3-25,41,5,35,32,-85,-100,86,9,74,29.79,29.55,9,-875,0,0.00
2013-3-26,37,10,27,31,-64,-100,87,22,67,29.83,29.59,13,-686,0,0.00
2013-3-27,50,26,27,33,-22,-100,87,35,45,29.93,29.78,15,-391,0,0.00
2013-3-28,50,22,34,38,-30,-100,90,39,57,30.08,29.93,10,-476,0,0.00
2013-3-29,47,35,32,39,18,-100,93,73,68,30.10,30.03,10,-111,0,0.00
2013-3-30,53,40,28,35,26,20,95,63,28,30.13,30.04,10,2,0,0.00
2013-3-31,58,41,27,39,17,-100,89,50,31,30.11,29.72,20,-69,0,0.06
2013-4-1,48,37,31,43,21,-100,94,67,35,29.83,29.54,22,-68,0,0.00
2013-4-2,35,16,30,18,-46,-100,57,23,39,29.95,29.81,23,-523,0,0.00
2013-4-3,42,21,31,17,-36,-100,56,23,26,30.22,29.94,24,-414,0,0.00
2013-4-4,52,36,21,25,12,-100,87,46,30,30.30,29.93,24,-62,0,0.00
2013-4-5,52,43,34,31,25,20,66,50,39,29.98,29.77,18,9,0,0.00
2013-4-6,43,33,26,21,13,8,67,46,27,30.30,29.98,22,8,0,0.00
2013-4-7,60,49,32,39,25,13,62,39,28,30.26,29.83,31,12,0,0.00
2013-4-8,58,49,43,40,36,33,77,61,40,30.14,29.91,15,4,0,0.00
2013-4-9,58,45,44,48,22,-100,94,60,56,30.04,29.80,19,-138,0,0.02
2013-4-10,49,10,43,46,-66,-100,96,22,83,30.01,29.91,4,-766,0,0.00
2013-4-11,40,27,35,28,-9,-100,72,45,47,30.19,29.91,15,-255,0,0.00
2013-4-12,36,10,34,33,-65,-100,92,21,63,30.18,29.79,16,-711,0,0.01
2013-4-13,52,23,39,40,-32,-100,90,35,60,29.93,29.78,13,-508,0,0.02
2013-4-14,48,38,30,38,21,-100,93,69,52,30.24,29.90,17,-92,0,0.00
2013-4-15,61,39,28,38,7,-100,95,46,39,30.37,30.20,18,-195,0,0.00
2013-4-16,59,44,51,54,14,-100,92,52,51,30.26,29.96,20,-175,0,0.08
2013-4-17,58,42,39,44,12,-100,87,50,45,30.36,30.09,16,-162,0,0.01
2013-4-18,66,50,32,42,36,29,93,61,37,30.37,29.98,21,7,0,0.01
2013-4-19,75,63,46,62,50,-100,90,69,55,29.98,29.47,28,-20,0,0.80
2013-4-20,52,36,37,43,2,-100,89,47,41,30.29,29.71,19,-191,0,0.06
2013-4-21,48,38,31,25,21,18,69,52,31,30.69,30.29,14,6,0,0.00
2013-4-22,58,40,25,29,14,-100,91,48,24,30.73,30.52,19,-69,0,0.00
2013-4-23,52,44,34,39,33,27,78,66,57,30.55,30.16,23,7,0,0.00
2013-4-24,72,56,34,51,42,33,95,64,35,30.15,29.64,16,6,0,0.00
2013-4-25,66,46,43,52,28,-100,72,56,36,30.24,29.64,26,-39,0,0.01
2013-4-26,57,48,42,37,35,34,78,62,44,30.46,30.40,9,3,0,0.00
2013-4-27,64,47,31,40,31,-100,95,62,28,30.46,30.30,7,-9,0,0.00
2013-4-28,73,48,35,42,18,-100,88,46,27,30.33,30.11,11,-135,0,0.00
2013-4-29,65,46,53,49,11,-100,72,45,46,30.22,30.14,14,-225,0,0.00
2013-4-30,73,62,54,51,45,39,76,57,41,30.30,30.22,16,4,0,0.00
2013-5-1,79,65,48,47,40,34,71,42,25,30.44,30.27,12,3,0,0.00
2013-5-2,81,67,49,50,44,35,70,44,30,30.46,30.28,18,5,0,0.00
2013-5-3,73,61,50,44,38,30,60,43,27,30.51,30.32,17,4,0,0.00
2013-5-4,76,64,48,51,45,35,81,53,33,30.35,30.18,17,3,0,0.00
2013-5-5,79,64,49,42,36,31,55,37,21,30.28,30.11,13,5,0,0.00
2013-5-6,78,63,45,48,35,15,78,42,10,30.24,30.06,15,5,0,0.00
2013-5-7,83,67,49,54,44,35,75,48,20,30.16,30.02,12,3,0,0.00
2013-5-8,77,65,52,62,55,45,92,72,46,30.16,30.01,15,3,0,0.28
2013-5-9,72,64,55,61,57,54,97,80,56,30.01,29.86,11,2,0,0.02
2013-5-10,73,63,54,61,57,53,95,82,61,29.99,29.81,8,2,0,0.01
2013-5-11,68,64,59,64,60,52,92,86,72,29.81,29.64,20,6,0,0.20
2013-5-12,60,54,42,52,42,27,89,66,32,29.81,29.65,16,4,0,0.00
2013-5-13,51,46,41,35,32,29,75,60,47,30.07,29.81,17,8,0,0.00
2013-5-14,59,46,32,38,34,29,94,67,36,30.12,30.00,10,2,0,0.00
2013-5-15,62,49,35,51,40,31,93,74,36,30.05,29.62,21,4,0,0.06
2013-5-16,77,60,44,51,44,36,95,59,24,29.86,29.62,28,7,0,0.00
2013-5-17,67,55,45,46,43,39,89,65,39,30.22,29.87,15,4,0,0.00
2013-5-18,74,58,38,48,42,36,94,59,27,30.31,30.20,9,2,0,0.00
2013-5-19,67,58,50,57,52,45,94,80,65,30.29,30.13,14,4,0,0.22
2013-5-20,72,64,57,65,60,55,96,87,77,30.14,29.97,12,3,0,0.00
2013-5-21,78,65,58,70,61,56,97,88,66,29.97,29.81,14,4,0,0.80
2013-5-22,80,52,58,72,27,-100,93,67,74,29.87,29.76,21,-217,0,0.01
2013-5-23,77,58,63,69,35,-100,95,67,67,29.80,29.72,20,-178,0,0.44
2013-5-24,63,50,45,61,49,43,96,93,90,30.02,29.68,19,8,0,0.82
2013-5-25,46,30,42,44,-1,-100,94,65,91,30.00,29.90,26,-297,0,1.03
2013-5-26,50,38,39,47,16,-100,97,73,79,30.12,29.87,22,-161,0,0.44
2013-5-27,69,35,40,47,-15,-100,97,36,35,30.18,30.09,12,-404,0,0.00
2013-5-28,67,17,41,50,-48,-100,93,31,50,30.23,30.10,4,-634,0,0.00
2013-5-29,70,20,58,66,-49,-100,94,28,84,30.11,29.93,7,-683,0,0.11
2013-5-30,89,36,61,72,-24,-100,96,30,43,30.09,30.00,6,-520,0,0.00
2013-5-31,90,77,62,72,66,60,94,72,43,30.09,29.91,19,4,0,0.00
2013-6-1,87,78,68,76,66,-100,92,73,53,29.96,29.80,19,-8,0,0.06
2013-6-2,85,72,63,73,67,-100,96,85,63,29.85,29.68,17,-6,0,0.46
2013-6-3,73,52,55,63,24,-100,97,60,39,29.89,29.80,14,-195,0,0.00
2013-6-4,67,53,46,50,34,-100,92,61,52,30.12,29.90,16,-82,0,0.00
2013-6-5,70,58,45,55,48,43,96,72,45,30.22,30.11,8,2,0,0.00
2013-6-6,73,56,52,55,43,-100,94,74,49,30.18,30.07,10,-61,0,0.09
2013-6-7,56,55,53,54,53,50,96,92,86,30.07,29.87,13,3,0,0.45
2013-6-8,63,58,54,60,56,53,96,93,84,30.04,29.77,9,2,0,0.17
2013-6-9,79,61,56,62,49,-100,97,76,43,30.19,30.04,15,-50,0,0.00
2013-6-10,74,63,52,64,58,51,96,84,50,30.21,29.95,16,1,0,0.17
2013-6-11,63,59,58,59,57,56,97,93,82,29.95,29.58,14,2,0,0.84
2013-6-12,66,29,55,58,-21,-100,97,47,70,29.86,29.62,15,-485,0,0.11
2013-6-13,66,50,53,59,31,-100,96,75,72,29.84,29.70,8,-156,0,0.06
2013-6-14,74,30,53,61,-21,-100,97,45,55,29.87,29.71,16,-488,0,0.00
2013-6-15,77,59,46,55,41,-100,96,63,36,29.97,29.86,7,-61,0,0.01
2013-6-16,72,62,54,62,56,49,94,81,60,29.93,29.71,13,3,0,0.09
2013-6-17,77,62,55,65,53,-100,97,81,56,29.93,29.79,15,-40,0,0.03
2013-6-18,69,47,50,57,20,-100,94,62,54,30.02,29.92,6,-220,0,0.08
2013-6-19,70,58,46,49,44,-100,96,67,34,30.20,30.00,14,4,0,0.00
2013-6-20,77,62,46,56,50,44,94,68,35,30.27,30.17,11,2,0,0.00
2013-6-21,83,66,47,62,56,46,97,72,39,30.26,30.19,7,2,0,0.00
2013-6-22,81,70,61,70,63,56,95,79,64,30.21,30.08,13,3,0,0.03
2013-6-23,81,55,68,76,28,-100,95,68,75,30.11,29.96,16,-232,0,0.13
2013-6-26,77,72,68,72,70,67,97,92,81,29.82,29.76,10,2,0,0.09
2013-6-27,87,75,66,73,69,65,97,83,55,29.81,29.71,9,2,0,0.01
2013-6-28,81,72,65,69,66,61,96,83,64,29.70,29.41,20,6,0,0.53
2013-6-29,82,72,64,69,66,62,94,82,58,29.68,29.49,17,3,0,0.02
2013-6-30,85,73,65,71,67,63,96,81,56,29.93,29.68,11,2,0,0.82
2013-7-1,70,68,63,68,66,62,96,94,87,30.08,29.93,6,2,0,0.20
2013-7-2,83,58,60,75,43,-100,97,81,76,30.15,30.06,10,-136,0,1.01
2013-7-3,87,78,71,77,73,70,97,86,66,30.17,30.09,18,4,0,0.02
2013-7-4,80,39,72,76,-12,-100,96,46,83,30.20,30.09,10,-478,0,0.01
2013-7-5,82,62,70,76,44,-100,97,77,80,30.16,30.05,15,-163,0,0.49
2013-7-6,87,52,69,73,18,-100,96,59,52,30.10,30.01,12,-306,0,0.02
2013-7-7,81,35,67,74,-17,-100,94,45,80,30.06,29.93,4,-504,0,0.16
2013-7-8,77,36,71,74,-14,-100,97,48,88,30.07,29.95,6,-499,0,0.73
2013-7-9,69,8,66,68,-81,-100,98,11,97,30.10,30.00,0,-884,0,0.00
2013-7-10,77,7,74,75,-84,-100,96,9,92,30.01,29.77,12,-904,0,1.65
2013-7-11,75,27,62,71,-36,-100,94,33,64,30.03,29.76,11,-608,0,0.06
2013-7-12,79,48,60,68,15,-100,96,59,62,30.21,30.03,9,-288,0,0.00
2013-7-13,80,19,66,71,-58,-100,95,22,74,30.32,30.21,4,-739,0,0.00
2013-7-14,86,77,69,75,72,67,95,83,61,30.32,30.23,7,1,0,0.00
2013-7-15,93,79,68,75,70,67,96,77,43,30.25,30.14,5,1,0,0.00
2013-7-16,88,78,65,74,70,64,97,77,53,30.24,30.17,10,2,0,0.00
2013-7-17,93,65,70,77,34,-100,95,56,58,30.21,29.98,14,-218,0,0.00
2013-7-18,92,78,70,77,70,-100,97,81,58,30.05,29.93,10,-19,0,0.01
2013-7-19,93,65,73,79,39,-100,95,64,53,29.94,29.69,18,-195,0,0.01
2013-7-20,84,43,72,75,-5,-100,87,46,67,29.83,29.67,14,-424,0,0.01
2013-7-21,78,68,61,65,59,-100,93,74,55,30.03,29.84,10,-7,0,0.00
2013-7-22,84,52,56,70,24,-100,96,62,61,30.04,29.85,7,-233,0,0.00
2013-7-23,80,34,70,72,-24,-100,93,38,73,29.85,29.57,5,-538,0,0.66
2013-7-24,72,66,51,68,61,50,96,84,66,30.05,29.59,18,4,0,0.00
2013-7-25,70,60,47,58,53,46,97,78,61,30.15,30.05,11,3,0,0.00
2013-7-26,74,63,54,65,58,53,97,85,68,30.12,30.02,11,2,0,0.00
2013-7-27,82,52,55,67,16,-100,96,51,49,30.07,29.95,12,-288,0,0.00
2013-7-28,80,40,65,70,-9,-100,90,43,70,29.99,29.91,15,-453,0,0.00
2013-7-29,81,18,64,61,-59,-100,87,17,43,30.10,29.96,11,-730,0,0.00
2013-7-30,76,22,60,64,-47,-100,93,27,57,30.16,30.07,5,-673,0,0.00
2013-7-31,80,22,65,66,-53,-100,85,19,52,30.16,30.03,12,-708,0,0.00
2013-8-1,78,34,63,67,-19,-100,93,42,69,30.03,29.84,13,-497,0,0.00
2013-8-2,80,68,60,66,54,-100,96,72,45,29.86,29.80,13,-39,0,0.00
2013-8-3,77,58,61,65,32,-100,92,60,48,29.86,29.79,13,-164,0,0.00
2013-8-4,75,59,57,62,43,-100,96,73,51,29.96,29.83,11,-77,0,0.07
2013-8-5,73,62,50,56,50,40,92,69,35,30.06,29.96,15,3,0,0.00
2013-8-6,76,64,52,60,54,49,90,71,42,30.13,30.06,12,3,0,0.00
2013-8-7,80,71,62,65,61,57,85,71,50,30.15,30.02,17,6,0,0.00
2013-8-8,84,76,70,72,68,62,88,78,63,30.02,29.95,21,5,0,0.00
2013-8-9,78,74,71,73,72,70,96,92,83,29.96,29.78,6,1,0,1.00
2013-8-10,77,69,55,69,58,50,95,70,41,30.05,29.82,11,3,0,0.00
2013-8-11,77,65,53,61,56,51,95,76,50,30.11,29.99,11,2,0,0.00
2013-8-12,78,68,57,65,60,55,94,77,53,30.04,29.91,15,2,0,0.00
2013-8-13,71,67,63,66,63,60,95,88,79,29.90,29.69,11,2,0,0.29
2013-8-14,70,61,51,62,54,50,94,78,61,29.99,29.72,14,4,0,0.00
2013-8-15,74,24,51,56,-33,-100,96,39,50,30.11,29.99,12,-554,0,0.01
2013-8-16,77,23,53,61,-46,-100,92,27,53,30.22,30.11,13,-630,0,0.00
2013-8-17,78,41,54,63,-1,-100,96,49,53,30.32,30.23,5,-353,0,0.00
2013-8-18,76,66,56,66,60,54,97,83,62,30.29,30.10,9,1,0,0.00
2013-8-19,83,70,58,70,62,57,96,80,49,30.10,29.96,5,1,0,0.00
2013-8-20,84,71,60,71,64,58,96,79,55,30.11,30.01,9,2,0,0.00
2013-8-21,85,74,63,70,65,61,93,75,57,30.17,30.01,10,3,0,0.00
2013-8-22,85,72,62,71,66,61,96,83,59,30.03,29.82,15,4,0,0.21
2013-8-23,71,64,52,65,58,50,97,81,54,30.20,29.90,14,4,0,0.01
2013-8-24,80,62,46,60,52,45,97,75,33,30.35,30.21,5,1,0,0.00
2013-8-25,78,65,48,63,56,47,97,76,49,30.40,30.14,10,2,0,0.02
2013-8-26,75,70,64,70,66,62,95,87,79,30.15,29.89,14,2,0,0.82
2013-8-27,83,73,66,74,69,65,97,90,68,29.93,29.87,4,0,0,0.06
2013-8-28,85,72,63,73,68,62,98,87,58,29.96,29.85,7,1,0,0.01
2013-8-29,81,72,63,70,66,62,95,82,61,30.06,29.95,6,1,0,0.00
2013-8-30,83,73,64,72,67,63,96,83,66,30.02,29.79,13,3,0,0.00
2013-8-31,78,73,69,74,70,67,95,92,83,29.81,29.75,10,2,0,0.22
2013-9-1,82,74,70,74,70,69,96,88,67,29.89,29.81,4,1,0,0.00
2013-9-2,80,72,64,72,69,63,97,89,73,29.84,29.68,10,2,0,0.26
2013-9-3,75,68,61,66,63,58,96,84,67,29.83,29.73,14,4,0,0.00
2013-9-4,78,67,57,62,59,56,97,78,50,29.93,29.84,17,4,0,0.00
2013-9-5,66,14,59,61,-67,-100,95,20,49,30.20,29.89,9,-759,0,0.10
2013-9-6,68,52,42,50,36,-100,96,66,44,30.28,30.09,11,-61,0,0.01
2013-9-7,69,61,51,57,52,47,89,74,65,30.09,29.86,11,3,0,0.00
2013-9-8,63,47,49,57,19,-100,93,57,51,30.12,29.79,18,-206,0,0.07
2013-9-9,68,42,42,52,11,-100,95,57,46,30.23,30.07,17,-228,0,0.00
2013-9-10,74,60,59,71,47,-100,95,79,78,30.09,29.99,14,-102,0,0.45
2013-9-11,90,74,71,80,62,-100,94,78,66,30.04,29.89,19,-58,0,0.18
2013-9-12,82,19,69,73,-58,-100,95,21,72,29.94,29.65,13,-743,0,0.05
2013-9-13,68,60,54,67,56,-100,96,90,86,29.88,29.64,16,-6,0,0.10
2013-9-14,64,56,52,55,52,50,95,85,69,30.10,29.87,7,2,0,0.00
2013-9-15,66,56,45,56,51,44,96,84,67,30.17,30.04,13,3,0,0.00
2013-9-16,58,26,49,55,-29,-100,95,43,87,30.32,30.02,15,-535,0,0.21
2013-9-17,52,14,34,46,-48,-100,97,36,81,30.49,30.32,2,-620,0,0.00
2013-9-18,70,16,44,52,-63,-100,93,17,49,30.33,30.13,9,-743,0,0.00
2013-9-19,77,18,46,56,-54,-100,95,23,44,30.17,30.04,6,-694,0,0.00
2013-9-20,79,4,64,58,-90,-100,82,5,48,30.10,29.93,10,-936,0,0.00
2013-9-21,76,52,60,62,19,-100,89,53,46,29.96,29.60,24,-242,0,0.07
2013-9-22,66,55,48,63,45,-100,95,79,69,29.92,29.59,15,-49,0,0.45
2013-9-23,54,24,40,43,-27,-100,94,44,64,30.08,29.92,13,-467,0,0.00
2013-9-24,61,1,61,-100,-100,-100,0,0,100,30.06,29.90,2,-978,0,0.00
2013-9-25,45,9,39,44,-69,-100,96,21,95,30.02,29.92,0,-776,0,0.01
2013-9-26,44,4,39,43,-87,-100,97,9,96,30.18,30.02,0,-903,0,0.00
2013-9-27,47,2,46,46,-92,-100,96,5,95,30.32,30.18,0,-946,0,0.01
2013-9-28,50,18,40,50,-41,-100,97,40,95,30.38,30.26,4,-589,0,0.02
2013-9-29,59,7,46,49,-82,-100,96,12,93,30.25,30.08,9,-843,0,0.00
2013-9-30,-200,0,200,-100,-100,-100,0,0,100,30.11,29.98,0,-999,0,0.00
2013-10-1,47,0,47,45,-98,-100,92,1,92,30.02,29.88,0,-988,0,0.00
2013-10-2,54,1,54,-100,-100,-100,0,0,100,29.99,29.85,0,-988,0,0.00
2013-10-3,-200,0,200,-100,-100,-100,0,0,100,30.12,29.99,0,-999,0,0.00
2013-10-4,-200,0,200,-100,-100,-100,0,0,100,30.12,30.06,0,-999,0,0.00
2013-10-5,-200,0,200,-100,-100,-100,0,0,100,30.15,30.09,0,-999,0,0.00
2013-10-6,59,21,54,53,-43,-100,92,32,82,30.15,30.04,19,-621,0,0.23
2013-10-7,74,55,55,66,34,-100,94,70,69,30.02,29.59,23,-129,0,0.83
2013-10-8,45,4,40,42,-87,-100,94,9,87,30.41,29.91,0,-904,0,0.00
2013-10-9,63,20,35,44,-35,-100,96,43,46,30.48,30.35,9,-515,0,0.02
2013-10-10,47,6,41,45,-84,-100,93,10,84,30.35,30.19,4,-871,0,0.00
2013-10-11,47,3,44,46,-89,-100,96,7,95,30.20,30.13,0,-916,0,0.00
2013-10-12,72,44,39,57,17,-100,97,64,57,30.37,30.18,15,-205,0,0.00
2013-10-13,69,23,52,51,-41,-100,88,31,47,30.43,30.31,12,-583,0,0.00
2013-10-14,60,48,48,56,30,-100,95,76,82,30.35,30.25,9,-144,0,0.02
2013-10-15,67,58,54,59,52,-100,97,87,74,30.29,30.10,12,-9,0,0.00
2013-10-16,66,61,54,57,54,51,91,79,67,30.10,29.83,13,4,0,0.02
2013-10-17,69,60,53,57,53,48,94,79,52,29.85,29.69,13,3,0,0.13
2013-10-18,63,53,43,54,46,-100,96,83,60,29.92,29.61,14,-18,0,0.47
2013-10-19,64,53,40,48,44,39,95,74,55,29.94,29.67,17,4,0,0.04
2013-10-20,58,52,40,50,41,36,88,69,47,30.02,29.65,19,6,0,0.00
2013-10-21,63,51,37,46,41,35,95,72,49,30.09,29.88,16,4,0,0.00
2013-10-22,58,52,35,49,42,32,90,70,50,29.87,29.70,20,5,0,0.00
2013-10-23,53,43,32,41,37,31,94,79,54,29.80,29.62,13,2,0,0.01
2013-10-24,47,40,32,40,35,30,92,82,66,29.89,29.68,18,4,0,0.06
2013-10-25,47,28,36,36,-12,-100,89,45,53,30.15,29.90,11,-327,0,0.00
2013-10-26,49,43,30,37,33,27,93,72,51,30.15,29.82,22,6,0,0.00
2013-10-27,49,44,32,40,34,29,88,70,56,30.05,29.77,15,4,0,0.00
2013-10-28,48,40,29,41,32,23,91,75,53,30.40,30.04,18,4,0,0.01
2013-10-29,47,32,20,30,24,19,93,75,44,30.51,30.36,7,1,0,0.00
2013-10-30,49,39,32,38,32,23,92,76,63,30.35,30.19,9,2,0,0.00
2013-10-31,62,48,34,59,45,32,95,91,85,30.23,29.63,13,3,0,0.40
2013-11-1,68,62,53,62,54,44,92,76,45,29.65,29.29,30,12,0,0.42
2013-11-2,57,46,38,47,42,36,95,86,67,29.88,29.62,17,4,0,0.04
2013-11-3,39,33,24,36,23,-100,90,68,51,30.49,29.88,20,-2,0,0.00
2013-11-4,40,18,24,25,-34,-100,85,34,48,30.70,30.49,11,-455,0,0.00
2013-11-5,50,29,39,36,-16,-100,71,39,50,30.66,30.44,16,-371,0,0.00
2013-11-6,60,51,40,47,42,34,81,72,60,30.44,29.89,20,7,0,0.00
2013-11-7,57,49,34,53,44,26,92,83,68,29.89,29.73,16,5,0,0.19
2013-11-8,43,36,29,35,28,25,93,74,55,30.12,29.86,15,4,0,0.01
2013-11-9,42,37,28,35,27,22,87,68,55,30.21,29.94,11,4,0,0.01
2013-11-10,46,41,37,40,37,32,92,84,74,29.93,29.72,19,6,0,0.07
2013-11-11,46,41,35,36,32,29,83,70,59,30.11,29.85,19,6,0,0.00
2013-11-12,43,30,22,37,22,17,90,71,57,30.26,29.87,16,5,0,0.00
2013-11-13,35,18,21,23,-33,-100,84,33,42,30.35,30.09,16,-424,0,0.00
2013-11-14,46,38,33,30,25,21,70,59,46,30.08,30.03,21,6,0,0.00
2013-11-15,55,45,39,26,22,19,59,41,30,30.18,30.07,16,5,0,0.00
2013-11-16,58,47,39,35,31,25,69,53,40,30.30,30.17,13,3,0,0.00
2013-11-17,58,51,40,53,44,32,87,78,63,30.25,29.68,23,7,0,0.02
2013-11-18,61,54,43,58,43,31,93,69,45,29.70,29.39,29,10,0,0.30
2013-11-19,43,35,28,33,22,17,75,61,53,30.39,29.69,20,8,0,0.00
2013-11-20,37,28,20,23,20,17,91,72,55,30.65,30.39,9,2,0,0.00
2013-11-21,43,32,18,30,22,15,92,69,38,30.64,30.34,21,4,0,0.00
2013-11-22,45,42,37,43,39,30,94,89,70,30.34,29.82,10,3,0,0.14
2013-11-23,44,34,25,42,26,16,91,72,54,29.98,29.80,20,5,0,0.00
2013-11-24,24,20,12,20,6,0,87,56,42,30.27,29.86,19,7,0,0.00
2013-11-25,32,21,8,19,10,2,87,65,43,30.41,30.18,14,4,0,0.00
2013-11-26,36,32,30,34,25,-100,93,79,55,30.27,29.98,19,-15,0,0.06
2013-11-27,40,36,33,37,33,-100,96,93,89,29.97,29.40,10,-7,0,1.01
2013-11-28,33,22,13,32,15,9,95,74,50,30.45,29.56,14,4,0,0.00
2013-11-29,26,16,9,19,11,6,91,80,59,30.80,30.45,6,1,0,0.02
2013-11-30,29,20,7,18,12,4,90,72,54,30.82,30.36,17,3,0,0.00
2013-12-1,39,34,28,33,28,18,93,81,63,30.35,30.05,11,2,0,0.01
2013-12-2,39,35,29,35,32,27,95,90,81,30.05,29.91,10,1,0,0.00
2013-12-3,45,36,31,38,33,29,95,87,73,30.01,29.91,8,2,0,0.01
2013-12-4,40,33,26,32,28,24,93,84,69,30.18,30.01,5,1,0,0.00
2013-12-5,55,44,28,52,41,26,93,87,78,30.14,29.84,15,4,0,0.00
2013-12-6,53,41,33,52,37,30,95,86,74,30.17,29.87,9,2,0,0.61
2013-12-7,34,31,28,32,24,17,94,75,54,30.48,30.13,13,3,0,0.00
2013-12-8,29,27,23,20,17,15,79,67,59,30.60,30.46,6,1,0,0.00
2013-12-9,37,32,26,34,27,18,91,82,64,30.46,29.88,21,7,0,0.02
2013-12-10,38,31,21,33,22,13,85,68,53,29.97,29.81,15,6,0,0.01
2013-12-11,30,24,18,20,15,12,84,71,53,30.18,29.97,17,5,0,0.00
2013-12-12,21,17,9,16,8,1,88,67,47,30.34,30.00,21,6,0,0.00
2013-12-13,20,15,4,17,9,-3,89,77,65,30.48,29.93,18,5,0,0.00
2013-12-14,11,6,0,100,5,-5,89,78,69,30.65,30.15,5,2,0,0.00
2013-12-15,26,21,11,22,18,8,93,88,74,30.13,29.56,13,3,0,0.00
2013-12-16,22,15,2,100,7,-4,93,68,50,30.26,29.72,16,4,0,0.01
2013-12-17,164,7,1,100,46,-3,90,84,76,30.21,29.98,5,1,0,0.00
2013-12-18,30,20,8,24,16,5,91,85,74,30.03,29.95,10,2,0,0.10
2013-12-19,39,34,28,31,26,24,89,75,64,30.08,29.94,16,6,0,0.04
2013-12-20,41,36,27,37,31,26,94,83,71,30.08,29.89,11,2,0,0.14
2013-12-21,51,37,28,46,35,26,96,91,81,29.96,29.80,17,4,0,0.16
2013-12-22,32,30,27,31,28,25,96,94,93,29.97,29.66,11,1,0,0.00
2013-12-23,34,32,28,33,31,26,96,96,91,30.19,29.97,0,0,0,0.01
2013-12-24,28,20,11,26,17,8,93,87,79,30.34,30.16,10,1,0,0.00
2013-12-25,16,10,3,13,6,-1,89,82,70,30.59,30.35,11,2,0,0.00
2013-12-26,29,25,16,26,21,13,93,86,69,30.41,30.10,10,3,0,0.00
2013-12-27,30,22,23,25,-4,-100,93,66,74,30.26,30.18,14,-205,0,0.00
2013-12-28,32,6,27,30,-72,-100,95,19,81,30.17,29.99,7,-780,0,0.00
2013-12-29,44,31,33,34,14,-100,96,73,64,30.01,29.60,18,-135,0,0.56
2013-12-30,37,25,10,35,19,2,96,77,54,30.22,29.60,14,5,0,0.02
2013-12-31,20,14,8,15,7,1,88,76,69,30.22,30.02,10,3,0,0.00
2014-1-1,21,14,3,13,6,-5,83,70,55,30.46,30.15,16,7,0,0.00
2014-1-2,3,0,0,100,78,-7,83,79,68,30.46,29.90,15,8,0,0.00